EST,Max TemperatureF,Mean TemperatureF,Min TemperatureF,Max Dew PointF,MeanDew PointF,Min DewpointF,Max Humidity, Mean Humidity, Min Humidity, Max Sea Level PressureIn, Mean Sea Level PressureIn, Min Sea Level PressureIn, Max VisibilityMiles, Mean VisibilityMiles, Min VisibilityMiles, Max Wind SpeedMPH, Mean Wind SpeedMPH, Max Gust SpeedMPH,PrecipitationIn, CloudCover, Events, WindDirDegrees
2013-11-1,71,62,52,58,50,42,84,67,40,29.71,29.64,29.59,10,10,7,17,10,25,0.35,4,Rain-Thunderstorm,227
2013-11-2,63,54,46,47,43,37,86,69,49,29.83,29.71,29.65,10,10,6,14,5,18,0.00,4,,284
2013-11-3,51,42,33,41,30,20,82,58,33,30.48,30.15,29.86,10,10,10,17,9,28,0.00,3,,340
2013-11-4,43,35,27,25,20,16,72,55,34,30.65,30.60,30.51,10,10,10,9,4,,0.00,0,,37
2013-11-5,55,44,32,44,35,26,83,69,57,30.63,30.56,30.47,10,10,10,9,3,,0.00,5,,126
2013-11-6,63,56,48,49,46,44,89,74,56,30.47,30.27,30.05,10,10,10,13,4,17,0.00,4,,169
2013-11-7,57,50,42,55,46,24,100,79,49,30.03,29.92,29.86,10,9,2,17,9,29,0.09,7,Rain,277
2013-11-8,46,40,34,30,26,22,72,59,42,30.29,30.15,30.04,10,10,10,23,9,31,0.00,2,,282
2013-11-9,51,40,28,32,27,23,88,66,38,30.34,30.20,29.99,10,10,8,12,3,,0.00,0,,197
2013-11-10,55,42,30,37,30,25,89,61,41,30.16,30.02,29.93,10,9,6,24,7,30,0.00,4,,283
2013-11-11,51,43,35,32,29,26,70,52,39,30.26,30.14,29.99,10,10,10,12,9,22,0.00,5,,252
2013-11-12,48,37,25,35,19,10,71,51,37,30.37,30.21,29.97,10,10,10,22,11,29,0.00,3,Rain,327
2013-11-13,39,32,25,19,16,12,71,55,38,30.46,30.39,30.34,10,10,10,16,7,23,0.00,1,,310
2013-11-14,52,39,26,21,15,9,75,44,18,30.33,30.27,30.22,10,10,10,15,5,,0.00,0,,254
2013-11-15,55,41,27,33,25,20,75,56,30,30.28,30.23,30.19,10,10,8,7,1,,0.00,1,Rain,48
2013-11-16,55,47,39,48,43,35,100,85,62,30.33,30.28,30.25,10,6,2,8,3,,0.03,5,Rain,144
2013-11-17,61,54,48,57,51,46,100,91,75,30.24,30.08,29.71,10,5,1,16,6,22,0.00,8,,152
2013-11-18,62,55,46,58,39,22,94,56,26,29.91,29.73,29.65,10,9,1,37,16,53,0.01,3,Rain,262
2013-11-19,46,40,32,25,23,20,61,49,42,30.37,30.16,29.91,10,10,10,26,17,33,0.00,4,,326
2013-11-20,45,36,26,23,17,12,75,52,26,30.59,30.52,30.38,10,10,10,9,3,,0.00,0,,80
2013-11-21,46,36,26,37,27,14,74,64,54,30.60,30.51,30.38,10,10,9,5,1,,0.00,6,,85
2013-11-22,52,48,44,47,43,37,93,86,74,30.35,30.15,30.00,10,8,4,21,2,29,0.05,7,Rain,287
2013-11-23,50,39,27,42,23,6,74,54,38,30.17,30.08,30.01,10,10,10,22,14,31,0.00,2,,303
2013-11-24,28,24,21,10,1,-4,63,38,25,30.47,30.33,30.17,10,10,10,25,16,37,0.00,1,,308
2013-11-25,32,24,17,13,10,7,71,52,35,30.54,30.44,30.33,10,10,10,10,8,,0.00,0,,238
2013-11-26,43,36,30,43,27,10,100,78,40,30.31,30.07,29.60,10,5,2,18,6,24,1.08,8,Rain-Snow,98
2013-11-27,46,37,28,46,33,15,100,84,56,29.93,29.57,29.47,10,7,2,25,13,36,0.50,8,Rain-Snow,298
2013-11-28,34,30,27,21,16,14,72,56,44,30.47,30.30,29.97,10,10,10,20,13,31,0.00,4,,307
2013-11-29,37,30,21,22,18,15,78,63,44,30.74,30.61,30.47,10,10,6,15,3,18,0.00,3,,345
2013-11-30,36,27,18,25,19,13,82,71,55,30.74,30.59,30.38,10,9,6,8,2,,0.00,2,,113